EN

Hourly Weather Altay

Today, 22 January, Friday

Time Temperature Precipitation Wind Pressure Humidity
00:00 -7°C° 0 mm 2 mps 666 mmHg 74%
01:00 -7°C° 0 mm 2 mps 666 mmHg 74%
02:00 -7°C° 0 mm 2 mps 665 mmHg 74%
03:00 -6°C° 0 mm 1 mps 665 mmHg 74%
04:00 -6°C° 0 mm 1 mps 665 mmHg 73%
05:00 -7°C° 0 mm 1 mps 664 mmHg 73%
06:00 -7°C° 0 mm 1 mps 664 mmHg 73%
07:00 -6°C° 0 mm 1 mps 664 mmHg 72%
08:00 -6°C° 0 mm 1 mps 664 mmHg 71%
09:00 -6°C° 0 mm 1 mps 664 mmHg 70%
10:00 -4°C° 0 mm 1 mps 664 mmHg 72%
11:00 -3°C° 0 mm 1 mps 663 mmHg 74%
12:00 -2°C° 0 mm 1 mps 663 mmHg 76%
13:00 -2°C° 0 mm 1 mps 663 mmHg 75%
14:00 -2°C° 0 mm 1 mps 663 mmHg 73%
15:00 -3°C° 0 mm 1 mps 662 mmHg 71%
16:00 -3°C° 0 mm 1 mps 662 mmHg 69%
17:00 -4°C° 0 mm 1 mps 663 mmHg 67%
18:00 -4°C° 0 mm 1 mps 663 mmHg 65%
19:00 -4°C° 0 mm 1 mps 664 mmHg 65%
20:00 -5°C° 0 mm 0 mps 664 mmHg 66%
21:00 -5°C° 0 mm 0 mps 665 mmHg 67%
22:00 -5°C° 0.1 mm 0 mps 665 mmHg 74%
23:00 -6°C° 0.1 mm 1 mps 666 mmHg 80%

Tomorrow, 23 January, Saturday

Time Temperature Precipitation Wind Pressure Humidity
00:00 -6°C° 0.1 mm 1 mps 666 mmHg 87%
01:00 -6°C° 0.4 mm 1 mps 666 mmHg 90%
02:00 -6°C° 0.4 mm 1 mps 667 mmHg 93%
03:00 -6°C° 0.4 mm 1 mps 667 mmHg 96%
04:00 -8°C° 0.2 mm 2 mps 668 mmHg 94%
05:00 -9°C° 0.2 mm 2 mps 668 mmHg 93%
06:00 -10°C° 0.2 mm 3 mps 668 mmHg 92%
07:00 -12°C° 0 mm 3 mps 669 mmHg 91%
08:00 -13°C° 0 mm 3 mps 669 mmHg 91%
09:00 -14°C° 0 mm 3 mps 670 mmHg 91%
10:00 -13°C° 0 mm 2 mps 670 mmHg 89%
11:00 -12°C° 0 mm 2 mps 670 mmHg 87%
12:00 -12°C° 0 mm 2 mps 671 mmHg 85%
13:00 -13°C° 0 mm 2 mps 670 mmHg 86%
14:00 -13°C° 0 mm 2 mps 670 mmHg 88%
15:00 -12°C° 0 mm 1 mps 670 mmHg 89%
16:00 -13°C° 0 mm 1 mps 671 mmHg 89%
17:00 -15°C° 0 mm 1 mps 671 mmHg 90%
18:00 -17°C° 0 mm 1 mps 671 mmHg 90%
19:00 -17°C° 0 mm 1 mps 672 mmHg 89%
20:00 -17°C° 0 mm 1 mps 672 mmHg 88%
21:00 -17°C° 0 mm 1 mps 673 mmHg 87%
22:00 -17°C° 0 mm 1 mps 673 mmHg 85%
23:00 -18°C° 0 mm 1 mps 673 mmHg 83%

Day after tomorrow, 24 January, Sunday

Time Temperature Precipitation Wind Pressure Humidity
00:00 -18°C° 0 mm 1 mps 673 mmHg 81%
01:00 -18°C° 0 mm 1 mps 673 mmHg 80%
02:00 -19°C° 0 mm 1 mps 674 mmHg 78%
03:00 -19°C° 0 mm 1 mps 674 mmHg 76%
04:00 -19°C° 0 mm 1 mps 674 mmHg 78%
05:00 -18°C° 0 mm 1 mps 675 mmHg 81%
06:00 -18°C° 0 mm 1 mps 675 mmHg 83%
07:00 -19°C° 0 mm 1 mps 675 mmHg 82%
08:00 -19°C° 0 mm 1 mps 675 mmHg 80%
09:00 -20°C° 0 mm 1 mps 675 mmHg 79%
10:00 -18°C° 0 mm 1 mps 676 mmHg 78%
11:00 -16°C° 0 mm 1 mps 676 mmHg 78%
12:00 -15°C° 0 mm 1 mps 676 mmHg 78%
13:00 -15°C° 0.1 mm 1 mps 676 mmHg 82%
14:00 -15°C° 0.1 mm 1 mps 676 mmHg 86%
15:00 -15°C° 0.1 mm 1 mps 676 mmHg 90%
16:00 -15°C° 0.1 mm 1 mps 676 mmHg 92%
17:00 -15°C° 0.1 mm 1 mps 676 mmHg 94%
18:00 -15°C° 0.1 mm 1 mps 676 mmHg 96%
19:00 -15°C° 0.3 mm 1 mps 676 mmHg 96%
20:00 -17°C° 0.3 mm 2 mps 676 mmHg 97%
21:00 -17°C° 0.3 mm 2 mps 676 mmHg 97%
22:00 -17°C° 0.4 mm 2 mps 676 mmHg 97%
23:00 -17°C° 0.4 mm 2 mps 676 mmHg 97%

25 January, Monday

Time Temperature Precipitation Wind Pressure Humidity
00:00 -17°C° 0.4 mm 2 mps 676 mmHg 97%
01:00 -15°C° 0.2 mm 1 mps 675 mmHg 97%
02:00 -16°C° 0.2 mm 1 mps 675 mmHg 97%
03:00 -16°C° 0.2 mm 1 mps 675 mmHg 97%
04:00 -16°C° 0.1 mm 1 mps 675 mmHg 97%
05:00 -17°C° 0.1 mm 1 mps 675 mmHg 97%
06:00 -17°C° 0.1 mm 0 mps 675 mmHg 97%
07:00 -17°C° 0.1 mm 0 mps 675 mmHg 97%
08:00 -17°C° 0.1 mm 0 mps 676 mmHg 97%
09:00 -17°C° 0.1 mm 1 mps 676 mmHg 97%
10:00 -17°C° 0.1 mm 1 mps 676 mmHg 96%
11:00 -17°C° 0.1 mm 1 mps 676 mmHg 95%
12:00 -18°C° 0.1 mm 2 mps 676 mmHg 94%
13:00 -17°C° 0 mm 1 mps 676 mmHg 94%
14:00 -18°C° 0 mm 1 mps 675 mmHg 95%
15:00 -18°C° 0 mm 0 mps 675 mmHg 96%
16:00 -20°C° 0 mm 1 mps 675 mmHg 94%
17:00 -21°C° 0 mm 1 mps 676 mmHg 93%
18:00 -22°C° 0 mm 1 mps 676 mmHg 91%
19:00 -23°C° 0 mm 1 mps 676 mmHg 89%
20:00 -23°C° 0 mm 1 mps 676 mmHg 86%
21:00 -23°C° 0 mm 1 mps 677 mmHg 84%
22:00 -23°C° 0 mm 1 mps 677 mmHg 83%
23:00 -22°C° 0 mm 1 mps 676 mmHg 83%

26 January, Tuesday

Time Temperature Precipitation Wind Pressure Humidity
00:00 -22°C° 0 mm 1 mps 676 mmHg 82%
01:00 -22°C° 0 mm 1 mps 676 mmHg 82%
02:00 -22°C° 0 mm 1 mps 676 mmHg 81%
03:00 -23°C° 0 mm 1 mps 676 mmHg 81%
04:00 -23°C° 0 mm 1 mps 676 mmHg 79%
05:00 -23°C° 0 mm 1 mps 676 mmHg 77%
06:00 -24°C° 0 mm 1 mps 676 mmHg 76%
07:00 -23°C° 0 mm 1 mps 676 mmHg 75%
08:00 -23°C° 0 mm 1 mps 676 mmHg 74%
09:00 -23°C° 0 mm 1 mps 676 mmHg 73%
10:00 -21°C° 0 mm 1 mps 676 mmHg 74%
11:00 -20°C° 0 mm 1 mps 676 mmHg 75%
12:00 -18°C° 0 mm 0 mps 676 mmHg 75%
13:00 -18°C° 0 mm 0 mps 675 mmHg 80%
14:00 -18°C° 0 mm 0 mps 675 mmHg 85%
15:00 -18°C° 0 mm 0 mps 675 mmHg 89%
16:00 -19°C° 0 mm 0 mps 675 mmHg 91%
17:00 -20°C° 0 mm 0 mps 675 mmHg 92%
18:00 -21°C° 0 mm 1 mps 675 mmHg 93%
19:00 -21°C° 0 mm 1 mps 675 mmHg 91%
20:00 -21°C° 0 mm 1 mps 676 mmHg 90%
21:00 -21°C° 0 mm 1 mps 676 mmHg 88%
22:00 -21°C° 0 mm 1 mps 676 mmHg 85%
23:00 -22°C° 0 mm 1 mps 676 mmHg 83%

27 January, Wednesday

Time Temperature Precipitation Wind Pressure Humidity
00:00 -22°C° 0 mm 1 mps 676 mmHg 80%
01:00 -22°C° 0 mm 1 mps 676 mmHg 78%
02:00 -22°C° 0 mm 1 mps 676 mmHg 77%
03:00 -23°C° 0 mm 1 mps 676 mmHg 75%
04:00 -23°C° 0 mm 1 mps 676 mmHg 73%
05:00 -23°C° 0 mm 1 mps 676 mmHg 72%
06:00 -23°C° 0 mm 1 mps 676 mmHg 70%
07:00 -23°C° 0 mm 1 mps 676 mmHg 69%
08:00 -23°C° 0 mm 1 mps 677 mmHg 67%
09:00 -22°C° 0 mm 1 mps 677 mmHg 66%
10:00 -21°C° 0 mm 1 mps 678 mmHg 67%
11:00 -19°C° 0 mm 0 mps 678 mmHg 69%
12:00 -18°C° 0 mm 0 mps 678 mmHg 70%
13:00 -18°C° 0 mm 0 mps 678 mmHg 72%
14:00 -19°C° 0 mm 0 mps 678 mmHg 73%
15:00 -19°C° 0 mm 0 mps 677 mmHg 74%
16:00 -20°C° 0 mm 1 mps 678 mmHg 67%
17:00 -20°C° 0 mm 1 mps 678 mmHg 61%
18:00 -21°C° 0 mm 1 mps 679 mmHg 54%
19:00 -21°C° 0 mm 1 mps 679 mmHg 50%
20:00 -22°C° 0 mm 1 mps 679 mmHg 47%
21:00 -22°C° 0 mm 1 mps 679 mmHg 43%
22:00 -22°C° 0 mm 1 mps 679 mmHg 41%
23:00 -21°C° 0 mm 1 mps 679 mmHg 39%
Show more